GALAXY 3C (G-3C) (27445 NORAD) Tracking and Keplerian Element Data

This shows tracking and keplerian element data for the satellite.

Feedback or suggestion? Click here.




ElementValue
Catalog27445
NameGALAXY 3C (G-3C)
Epoch Orbit4469
Epoch Day354.14513936
Epoch Year2025
RAAN80.4298
Inclination3.2813
Eccentricity0.0001118
Argument of Perigee77.884
Mean Anonmoly248.0601
Mean Motion1.00271829
Decay Rate-1.31E-06
L11 27445U 02030A 25354.14513936 -.00000131 00000+0 00000+0 0 9992
L22 27445 3.2813 80.4298 0001118 77.8840 248.0601 1.00271829 44691



Live tracking and technical data element details for GALAXY 3C (G-3C) (NORAD 27445). GALAXY 3C (G-3C) can be tracked NOW for your location showing map with azimuth and elevation plus other details from your city location.







IsCatalogInMostPopularTable: catalog: 27445, numindb: 381
Update: records affected: 1



GetName: 27445 GALAXY 3C (G-3C)

Hit Count: updated at: Sat, 14 Mar 2026 02:18:32 GMT